Regional Weather Roundup
Issued by NWS

Home | Current Version | Previous Version | Text Only | Print | Product List | Glossary On
Versions: 1 2 3 4 5 6 7 8 9 10 11 12 13 14 15 16 17 18 19 20 21 22 23 24 25 26 27 28 29 30 31 32 33 34 35 36 37 38 39 40 41 42 43 44 45 46 47 48 49 50
000
ASUS45 KBOI 190310
RWRID
WEATHER ROUNDUP FOR IDAHO
NATIONAL WEATHER SERVICE BOISE ID
900 PM MDT SAT APR 18 2015

NOTE: "FAIR" INDICATES FEW OR NO CLOUDS BELOW 12000 FEET
WITH NO SIGNIFICANT WEATHER AND/OR OBSTRUCTIONS TO VISIBILITY

IDZ012-014-190400-
SOUTHWEST IDAHO


CITY           SKY/WX    TMP DP  RH WIND       PRES   REMARKS
BOISE          CLEAR     64  19  17 NW12      30.03R
CALDWELL       CLEAR     63  25  23 NW12      30.07R
MOUNTAIN HOME  CLEAR     62  22  22 NW21      30.01R
$$

IDZ016-017-190400-
SOUTHCENTRAL IDAHO


CITY           SKY/WX    TMP DP  RH WIND       PRES   REMARKS
BURLEY         CLEAR     57  28  33 W16       30.00R
JEROME         CLEAR     58  25  28 SW18G28   30.01R
TWIN FALLS     CLEAR     57  24  28 SW17G23   30.03R
$$

IDZ019>023-190400-
SOUTHEAST IDAHO


CITY           SKY/WX    TMP DP  RH WIND       PRES   REMARKS
IDAHO FALLS    CLEAR     56  23  27 N12       30.02R
POCATELLO      CLEAR     57  23  26 N5        30.01R
REXBURG        PTCLDY    54  25  32 N10       30.05R
$$

IDZ006-010-011-018-031-032-190400-
CENTRAL IDAHO MOUNTAINS


CITY           SKY/WX    TMP DP  RH WIND       PRES   REMARKS
MCCALL         CLEAR     49  18  29 NW13      30.15S
HAILEY         CLEAR     61  16  17 N7        30.03R
STANLEY          N/A     40  19  43 CALM      30.14R
SALMON         CLEAR     52  18  25 NE3       30.08R
CHALLIS        CLEAR     53  15  22 NW12      30.09R
$$

IDZ002-004-006-007-026-190400-
NORTHERN IDAHO


CITY           SKY/WX    TMP DP  RH WIND       PRES   REMARKS
LEWISTON       CLEAR     63  21  20 W3        30.15S
LOWELL           N/A     51  41  68 CALM      30.17R
COEUR D`ALENE  CLEAR     57  18  21 NW10      30.15S
MULLAN PASS    CLEAR     42  16  34 NW6       30.19S
$$



USA.gov is the U.S. government's official web portal to all federal, state and local government web resources and services.